Meteo pe oră la Dzierzkowice

Astăzi, 9 Martie, Marţi

Timp Temperatura Precipitaţii Vânt Presiune Umiditate
00:00 -4°C° 0 mm 2 m/s 749 mmHg 81%
01:00 -4°C° 0 mm 2 m/s 749 mmHg 80%
02:00 -4°C° 0 mm 2 m/s 749 mmHg 79%
03:00 -4°C° 0 mm 2 m/s 749 mmHg 79%
04:00 -4°C° 0 mm 2 m/s 749 mmHg 79%
05:00 -4°C° 0 mm 2 m/s 749 mmHg 77%
06:00 -4°C° 0 mm 2 m/s 749 mmHg 75%
07:00 -4°C° 0 mm 2 m/s 749 mmHg 73%
08:00 -3°C° 0 mm 2 m/s 749 mmHg 66%
09:00 -3°C° 0 mm 2 m/s 750 mmHg 58%
10:00 -2°C° 0 mm 2 m/s 750 mmHg 51%
11:00 +1°C° 0 mm 1 m/s 750 mmHg 47%
12:00 +2°C° 0 mm 1 m/s 750 mmHg 44%
13:00 +2°C° 0 mm 1 m/s 750 mmHg 40%
14:00 +2°C° 0 mm 1 m/s 749 mmHg 41%
15:00 +2°C° 0 mm 1 m/s 749 mmHg 42%
16:00 +2°C° 0 mm 1 m/s 749 mmHg 42%
17:00 +1°C° 0 mm 1 m/s 749 mmHg 48%
18:00 -2°C° 0 mm 2 m/s 749 mmHg 54%
19:00 -3°C° 0 mm 2 m/s 749 mmHg 59%
20:00 -3°C° 0 mm 2 m/s 749 mmHg 61%
21:00 -4°C° 0 mm 2 m/s 749 mmHg 63%
22:00 -4°C° 0 mm 2 m/s 750 mmHg 65%
23:00 -4°C° 0 mm 2 m/s 749 mmHg 66%

Mâine, 10 Martie, Miercuri

Timp Temperatura Precipitaţii Vânt Presiune Umiditate
00:00 -4°C° 0 mm 2 m/s 749 mmHg 67%
01:00 -4°C° 0 mm 2 m/s 749 mmHg 68%
02:00 -4°C° 0 mm 2 m/s 749 mmHg 68%
03:00 -2°C° 0 mm 1 m/s 749 mmHg 69%
04:00 -2°C° 0 mm 1 m/s 748 mmHg 70%
05:00 -2°C° 0 mm 1 m/s 749 mmHg 69%
06:00 -2°C° 0 mm 1 m/s 749 mmHg 67%
07:00 -1°C° 0 mm 1 m/s 749 mmHg 66%
08:00 0°C° 0 mm 1 m/s 749 mmHg 60%
09:00 +1°C° 0 mm 1 m/s 749 mmHg 53%
10:00 +2°C° 0 mm 1 m/s 749 mmHg 47%
11:00 +2°C° 0 mm 1 m/s 749 mmHg 45%
12:00 +3°C° 0 mm 1 m/s 749 mmHg 42%
13:00 +3°C° 0 mm 1 m/s 749 mmHg 40%
14:00 +3°C° 0 mm 1 m/s 749 mmHg 41%
15:00 +3°C° 0 mm 1 m/s 749 mmHg 41%
16:00 +3°C° 0 mm 1 m/s 749 mmHg 42%
17:00 -1°C° 0 mm 2 m/s 749 mmHg 47%
18:00 -2°C° 0 mm 2 m/s 749 mmHg 52%
19:00 -3°C° 0 mm 2 m/s 749 mmHg 57%
20:00 -1°C° 0 mm 1 m/s 750 mmHg 57%
21:00 -1°C° 0 mm 1 m/s 750 mmHg 58%
22:00 -1°C° 0 mm 1 m/s 750 mmHg 58%
23:00 -1°C° 0 mm 1 m/s 750 mmHg 58%

Poimâine, 11 Martie, Joi

Timp Temperatura Precipitaţii Vânt Presiune Umiditate
00:00 -2°C° 0 mm 1 m/s 750 mmHg 59%
01:00 -2°C° 0 mm 1 m/s 750 mmHg 59%
02:00 -2°C° 0 mm 1 m/s 749 mmHg 59%
03:00 -2°C° 0 mm 1 m/s 749 mmHg 60%
04:00 -2°C° 0 mm 1 m/s 749 mmHg 61%
05:00 -4°C° 0 mm 2 m/s 749 mmHg 61%
06:00 -3°C° 0 mm 2 m/s 749 mmHg 62%
07:00 -3°C° 0 mm 2 m/s 749 mmHg 62%
08:00 -2°C° 0 mm 3 m/s 748 mmHg 57%
09:00 -1°C° 0 mm 3 m/s 748 mmHg 52%
10:00 0°C° 0 mm 4 m/s 748 mmHg 47%
11:00 0°C° 0 mm 4 m/s 747 mmHg 45%
12:00 +1°C° 0 mm 5 m/s 747 mmHg 44%
13:00 +2°C° 0 mm 5 m/s 746 mmHg 43%
14:00 +1°C° 0 mm 5 m/s 746 mmHg 45%
15:00 +1°C° 0 mm 5 m/s 745 mmHg 47%
16:00 +1°C° 0 mm 5 m/s 744 mmHg 50%
17:00 +1°C° 0 mm 6 m/s 744 mmHg 53%
18:00 -1°C° 0 mm 6 m/s 743 mmHg 56%
19:00 -1°C° 0 mm 7 m/s 743 mmHg 59%
20:00 -2°C° 0.5 mm 7 m/s 742 mmHg 72%
21:00 -2°C° 0.5 mm 7 m/s 742 mmHg 84%
22:00 -4°C° 0.5 mm 8 m/s 741 mmHg 96%
23:00 -2°C° 0.3 mm 7 m/s 740 mmHg 94%

12 Martie, Vineri

Timp Temperatura Precipitaţii Vânt Presiune Umiditate
00:00 -1°C° 0.3 mm 7 m/s 740 mmHg 92%
01:00 -1°C° 0.3 mm 7 m/s 739 mmHg 91%
02:00 0°C° 0.2 mm 7 m/s 739 mmHg 89%
03:00 +1°C° 0.2 mm 6 m/s 739 mmHg 88%
04:00 +1°C° 0.2 mm 6 m/s 738 mmHg 87%
05:00 +1°C° 0.5 mm 6 m/s 739 mmHg 89%
06:00 +1°C° 0.5 mm 6 m/s 739 mmHg 92%
07:00 +2°C° 0.5 mm 6 m/s 739 mmHg 94%
08:00 +3°C° 0.1 mm 7 m/s 739 mmHg 86%
09:00 +4°C° 0.1 mm 7 m/s 740 mmHg 77%
10:00 +5°C° 0.1 mm 8 m/s 740 mmHg 69%
11:00 +6°C° 0.2 mm 9 m/s 740 mmHg 66%
12:00 +6°C° 0.2 mm 9 m/s 741 mmHg 63%
13:00 +6°C° 0.2 mm 10 m/s 741 mmHg 60%
14:00 +5°C° 0.1 mm 8 m/s 741 mmHg 62%
15:00 +5°C° 0.1 mm 7 m/s 742 mmHg 64%
16:00 +4°C° 0.1 mm 6 m/s 742 mmHg 65%
17:00 +3°C° 0 mm 5 m/s 742 mmHg 70%
18:00 +3°C° 0 mm 4 m/s 742 mmHg 75%
19:00 +3°C° 0 mm 2 m/s 743 mmHg 79%
20:00 +3°C° 0 mm 2 m/s 743 mmHg 79%
21:00 +2°C° 0 mm 2 m/s 743 mmHg 80%
22:00 +2°C° 0 mm 2 m/s 743 mmHg 80%
23:00 +1°C° 0 mm 3 m/s 743 mmHg 82%

13 Martie, Sâmbătă

Timp Temperatura Precipitaţii Vânt Presiune Umiditate
00:00 0°C° 0 mm 3 m/s 743 mmHg 84%
01:00 0°C° 0 mm 3 m/s 742 mmHg 85%
02:00 -1°C° 0 mm 4 m/s 742 mmHg 86%
03:00 -1°C° 0 mm 4 m/s 742 mmHg 86%
04:00 -1°C° 0 mm 4 m/s 742 mmHg 86%
05:00 0°C° 0 mm 4 m/s 742 mmHg 85%
06:00 0°C° 0 mm 5 m/s 741 mmHg 84%
07:00 0°C° 0 mm 5 m/s 741 mmHg 83%
08:00 +2°C° 0 mm 5 m/s 741 mmHg 77%
09:00 +4°C° 0 mm 6 m/s 741 mmHg 71%
10:00 +5°C° 0 mm 7 m/s 741 mmHg 65%
11:00 +4°C° 0.5 mm 6 m/s 741 mmHg 71%
12:00 +4°C° 0.5 mm 6 m/s 741 mmHg 78%
13:00 +3°C° 0.5 mm 6 m/s 741 mmHg 85%
14:00 +5°C° 0.1 mm 5 m/s 741 mmHg 79%
15:00 +6°C° 0.1 mm 5 m/s 741 mmHg 73%
16:00 +6°C° 0.1 mm 4 m/s 741 mmHg 67%
17:00 +5°C° 0 mm 4 m/s 741 mmHg 71%
18:00 +4°C° 0 mm 4 m/s 741 mmHg 75%
19:00 +3°C° 0 mm 4 m/s 741 mmHg 79%
20:00 +3°C° 0 mm 4 m/s 741 mmHg 79%
21:00 +3°C° 0 mm 4 m/s 741 mmHg 79%
22:00 +2°C° 0 mm 5 m/s 741 mmHg 79%
23:00 +2°C° 0 mm 5 m/s 740 mmHg 79%

14 Martie, Duminică

Timp Temperatura Precipitaţii Vânt Presiune Umiditate
00:00 +3°C° 0 mm 5 m/s 740 mmHg 80%
01:00 +3°C° 0 mm 5 m/s 740 mmHg 80%
02:00 +3°C° 0 mm 5 m/s 739 mmHg 81%
03:00 +3°C° 0 mm 6 m/s 739 mmHg 82%
04:00 +3°C° 0 mm 6 m/s 739 mmHg 83%
05:00 +3°C° 0 mm 6 m/s 738 mmHg 82%
06:00 +3°C° 0 mm 6 m/s 738 mmHg 82%
07:00 +3°C° 0 mm 7 m/s 738 mmHg 82%
08:00 +5°C° 0 mm 7 m/s 738 mmHg 77%
09:00 +6°C° 0 mm 8 m/s 738 mmHg 71%
10:00 +7°C° 0 mm 8 m/s 737 mmHg 66%
11:00 +9°C° 0 mm 8 m/s 737 mmHg 65%
12:00 +9°C° 0 mm 8 m/s 737 mmHg 64%
13:00 +10°C° 0 mm 7 m/s 737 mmHg 63%
14:00 +9°C° 0.6 mm 6 m/s 737 mmHg 67%
15:00 +8°C° 0.6 mm 5 m/s 737 mmHg 71%
16:00 +8°C° 0.6 mm 3 m/s 737 mmHg 75%
17:00 +7°C° 0.1 mm 3 m/s 737 mmHg 74%
18:00 +5°C° 0.1 mm 3 m/s 738 mmHg 73%
19:00 +5°C° 0.1 mm 3 m/s 738 mmHg 72%
20:00 +4°C° 0 mm 3 m/s 739 mmHg 73%
21:00 +5°C° 0 mm 2 m/s 739 mmHg 74%
22:00 +4°C° 0 mm 2 m/s 739 mmHg 75%
23:00 +4°C° 0 mm 2 m/s 739 mmHg 77%
Arată mai mult

Formular de consimțământ

Meteoprog și furnizorii noștri de servicii pot stoca și accesa date personale, precum cookies, identificatori de dispozitiv sau alte tehnologii similare pe dispozitivul dumneavoastră și procesa astfel de date pentru a personaliza conținutul și reclamele, dar și pentru a oferi caracteristici de social media și pentru a analiza traficul.

  • Stocarea și/sau accesarea informațiilor pe dispozitivul dumneavoastră

    Cookies, identificatori de dispozitiv sau alte informații pot fi stocate sau accesate pe dispozitiv în scopurile indicate mai sus.

  • Reclame și conținut personalizat, evaluarea reclamelor și a conținutului, informații despre audiențe și dezvoltarea produselor

    Reclamele și conținutul pot fi personalizate pe baza unui profil. Pot fi adăugate date suplimentare pentru a personaliza mai bine reclamele și conținutul. Performanța reclamelor și conținutului poate fi măsurată. Pot fi obținute informații despre utilizatorii care au văzut reclamele și conținutul. Aceste date pot fi utilizate pentru a dezvolta sau îmbunătăți experiența utilizatorilor, sistemele și software-ul.

Dând clic pe ‘Sunt de acord’, permiteți utilizarea cookie-urilor menționate, a identificatorilor de dispozitiv, balizelor web sau altor tehnologii similare. Setările pot fi modificate din browser-ul dispozitivului dumneavoastră.

În anumite scopuri, interesele legitime pot prima asupra consimțământului. Puteți citi mai multe informații în acest sens în Politica privind Confidențialitatea Datelor și Cookie.